Showing default

UND ROADS 1, 64535

Orbit data source: Space-Track

UND ROADS 1, 64535 is an American payload satellite in SSO that was launched on Mon, 23 Jun 2025 UTC via an FALCON 9 launch vehicle from the Air Force Western Test Range (AFWTR). Payload-class satellites include a variety of spacecraft equipped with specific instruments for various scientific and technological missions. These include communications satellites like Starlink; space stations such as the ISS; scientific satellites like the Hubble; Earth observation satellites from companies like Planet Labs, Umbra, and HawkEye 360; GPS; miniature CubeSats for education and research; and military/defense satellites.

Loading next visibility...
Identifier
64535, 2025-135H
Orbit
SSO
Country
Flag of USUS
Related business
Manufacturer
UND
Mission
Operational Amateur Technology
Bus & Motor
CUBESAT 3U, Unknown motor
Mass
5.4 kg wet, 5.4 kg dry
Launch date (UTC)
2025-06-23 (9 months ago)
Launch vehicle
FALCON 9
Launch site
Air Force Western Test Range (AFWTR)
Object type
Payload
Rocket body
Debris
Shape & HBR
Box, 0.2 m
Radar Cross Section
0.035 m², Small (<0.1 m²)

Expand to show TLE details & history
Last TLE update: 23 hours ago

TLE from 23 hours ago
0 UND ROADS 1
1 64535U 25135H   26072.27496947  .00008130  00000-0  36684-3 0  9996
2 64535  97.4546 188.0923 0005424 143.5386 216.6219 15.21248379 40278
Epoch: 2026-03-13T06:35Z
TLE epoch observation values (Epoch: 2026-03-13T06:35:57.362Z)
Latitude
-0.0001°
Longitude
-81.80954°
Altitude
508.161 km
Speed
7.608 km/s
True Right ascension
12h 32m 22s
True Declination
0° 00' 00"
Sunlit
Object was in full shadow at epoch
Visualization orbit readout
Latitude
Unknown
Longitude
Unknown
Altitude
Unknown
Speed
Unknown
Apparent Right ascension
Unknown
Apparent Declination
Unknown
Sunlit
N/A
Visualization observer readout
Local Sidereal Time
10:19:21
Azimuth
Unknown
Elevation
Unknown
Doppler factor
Unknown
Orbital elements
Apogee altitude
502.77 km
Perigee altitude
495.31 km
Semi-major axis
6,877.177 km
Eccentricity
0.00054
Inclination
97.4546°
RAAN
188.0923°
Arg. of periapsis
143.5386°
True anomaly
216.58484°
Mean anomaly
216.6219°
Eccentric anomaly
216.60337°
Mean motion
3.80564 °/min
Orbital period
94.6 mins
BSTAR
0.00036684
Loading maneuver chart data...
Computing Atmospheric mass density...
Loading historical data...
Loading historical data...
Loading historical data...
Loading historical data...
Loading historical data...
Loading historical data...
Loading historical data...

Documentation

Showing up to 5 results
|